| time (UTC) | temp C | wind direction | speed KPH | gust KPH | rain 1hr cm | rain 24hr cm | rain mn cm | humidity % | barometer mb |
| 20260509222719 | 15 | 46 | 0.0 | 0.0 | 0.00 | 0.00 | 0.00 | 73 | 999.0 |
| 20260509222219 | 15 | 41 | 0.0 | 0.0 | 0.00 | 0.00 | 0.00 | 72 | 999.0 |
| 20260509221719 | 15 | 44 | 0.0 | 0.0 | 0.00 | 0.00 | 0.00 | 73 | 999.0 |
| 20260509221219 | 15 | 34 | 0.0 | 0.0 | 0.00 | 0.00 | 0.00 | 71 | 999.0 |
| 20260509220719 | 15 | 40 | 0.0 | 0.0 | 0.00 | 0.00 | 0.00 | 70 | 999.0 |
| 20260509220220 | 15 | 45 | 0.0 | 0.0 | 0.00 | 0.00 | 0.00 | 71 | 999.0 |
| 20260509215719 | 15 | 46 | 0.0 | 0.0 | 0.00 | 0.00 | 0.00 | 71 | 1000.0 |
| 20260509215219 | 16 | 42 | 0.0 | 0.0 | 0.00 | 0.00 | 0.00 | 70 | 1000.0 |
| 20260509214719 | 16 | 12 | 0.0 | 0.0 | 0.00 | 0.00 | 0.00 | 67 | 1000.0 |
| 20260509214220 | 17 | 54 | 0.0 | 0.0 | 0.00 | 0.00 | 0.00 | 65 | 1000.0 |
| 20260509213719 | 16 | 53 | 0.0 | 0.0 | 0.00 | 0.00 | 0.00 | 67 | 1000.0 |
| 20260509213222 | 16 | 57 | 0.0 | 0.0 | 0.00 | 0.00 | 0.00 | 66 | 1000.0 |
| 20260509212719 | 16 | 5 | 0.0 | 0.0 | 0.00 | 0.00 | 0.00 | 67 | 1000.0 |
| 20260509212219 | 16 | 51 | 0.0 | 0.0 | 0.00 | 0.00 | 0.00 | 66 | 1000.0 |
| 20260509211719 | 17 | 276 | 0.0 | 3.2 | 0.00 | 0.00 | 0.00 | 64 | 1000.0 |
| 20260509211219 | 17 | 26 | 1.6 | 6.4 | 0.00 | 0.00 | 0.00 | 62 | 1000.0 |
| 20260509210719 | 16 | 62 | 0.0 | 4.8 | 0.00 | 0.00 | 0.00 | 64 | 1000.0 |
| 20260509210219 | 17 | 269 | 3.2 | 4.8 | 0.00 | 0.00 | 0.00 | 64 | 1000.0 |
| 20260509205719 | 17 | 46 | 0.0 | 1.6 | 0.00 | 0.00 | 0.00 | 64 | 1000.0 |
| 20260509205219 | 17 | 0 | 6.4 | 8.0 | 0.00 | 0.00 | 0.00 | 61 | 1000.0 |
| 20260509204719 | 18 | 67 | 0.0 | 8.0 | 0.00 | 0.00 | 0.00 | 60 | 1000.0 |
| 20260509204220 | 17 | 52 | 0.0 | 0.0 | 0.00 | 0.00 | 0.00 | 64 | 1000.0 |
| 20260509203719 | 16 | 345 | 1.6 | 6.4 | 0.00 | 0.00 | 0.00 | 67 | 1000.0 |
| 20260509203219 | 16 | 27 | 0.0 | 1.6 | 0.00 | 0.00 | 0.00 | 67 | 1000.0 |
| 20260509202719 | 17 | 54 | 0.0 | 0.0 | 0.00 | 0.00 | 0.00 | 66 | 1000.0 |
| 20260509202220 | 16 | 11 | 4.8 | 3.2 | 0.00 | 0.00 | 0.00 | 66 | 1000.0 |
| 20260509201719 | 16 | 49 | 0.0 | 8.0 | 0.00 | 0.00 | 0.00 | 69 | 1000.0 |
| 20260509201220 | 17 | 339 | 1.6 | 3.2 | 0.00 | 0.00 | 0.00 | 66 | 1000.0 |
| 20260509200719 | 19 | 21 | 8.0 | 4.8 | 0.00 | 0.00 | 0.00 | 57 | 1000.0 |
| 20260509200219 | 21 | 275 | 3.2 | 4.8 | 0.00 | 0.00 | 0.00 | 53 | 1000.0 |
| 20260509195720 | 20 | 334 | 0.0 | 8.0 | 0.00 | 0.00 | 0.00 | 59 | 1001.0 |
| 20260509195219 | 20 | 27 | 0.0 | 3.2 | 0.00 | 0.00 | 0.00 | 57 | 1001.0 |
| 20260509194719 | 17 | 37 | 0.0 | 11.3 | 0.00 | 0.00 | 0.00 | 61 | 1001.0 |
| 20260509194220 | 20 | 283 | 0.0 | 0.0 | 0.00 | 0.00 | 0.00 | 60 | 1001.0 |
| 20260509193720 | 19 | 255 | 6.4 | 8.0 | 0.00 | 0.00 | 0.00 | 57 | 1001.0 |
| 20260509193219 | 19 | 65 | 0.0 | 8.0 | 0.00 | 0.00 | 0.00 | 60 | 1001.0 |
| 20260509192720 | 19 | 35 | 0.0 | 4.8 | 0.00 | 0.00 | 0.00 | 61 | 1001.0 |
| 20260509192219 | 20 | 344 | 1.6 | 8.0 | 0.00 | 0.00 | 0.00 | 58 | 1001.0 |
| 20260509191719 | 21 | 59 | 0.0 | 6.4 | 0.00 | 0.00 | 0.00 | 55 | 1001.0 |
| 20260509191219 | 20 | 31 | 0.0 | 3.2 | 0.00 | 0.00 | 0.00 | 63 | 1001.0 |
| 20260509190719 | 17 | 193 | 1.6 | 14.5 | 0.00 | 0.00 | 0.00 | 66 | 1001.0 |
| 20260509190220 | 20 | 9 | 3.2 | 6.4 | 0.00 | 0.00 | 0.00 | 58 | 1001.0 |
| 20260509185719 | 17 | 12 | 1.6 | 8.0 | 0.00 | 0.00 | 0.00 | 65 | 1001.0 |
| 20260509185220 | 19 | 4 | 1.6 | 8.0 | 0.00 | 0.00 | 0.00 | 63 | 1001.0 |
| 20260509184720 | 20 | 49 | 1.6 | 3.2 | 0.00 | 0.00 | 0.00 | 61 | 1001.0 |
| 20260509184219 | 21 | 340 | 0.0 | 1.6 | 0.00 | 0.00 | 0.00 | 55 | 1001.0 |
| 20260509183720 | 18 | 316 | 1.6 | 8.0 | 0.00 | 0.00 | 0.00 | 68 | 1001.0 |
| 20260509183219 | 16 | 321 | 3.2 | 9.7 | 0.00 | 0.00 | 0.00 | 67 | 1001.0 |
| 20260509182720 | 20 | 293 | 0.0 | 3.2 | 0.00 | 0.00 | 0.00 | 60 | 1001.0 |
| 20260509182219 | 17 | 43 | 0.0 | 8.0 | 0.00 | 0.00 | 0.00 | 65 | 1001.0 |
| 20260509181720 | 17 | 241 | 6.4 | 14.5 | 0.00 | 0.00 | 0.00 | 67 | 1001.0 |
| 20260509181219 | 17 | 275 | 6.4 | 11.3 | 0.00 | 0.00 | 0.00 | 63 | 1001.0 |
| 20260509180719 | 18 | 320 | 6.4 | 8.0 | 0.00 | 0.00 | 0.00 | 63 | 1001.0 |
| 20260509180220 | 20 | 327 | 0.0 | 3.2 | 0.00 | 0.00 | 0.00 | 60 | 1001.0 |
| 20260509175719 | 20 | 51 | 0.0 | 3.2 | 0.00 | 0.00 | 0.00 | 62 | 1002.0 |
| 20260509175219 | 17 | 30 | 0.0 | 6.4 | 0.00 | 0.00 | 0.00 | 66 | 1002.0 |
| 20260509174720 | 17 | 354 | 4.8 | 6.4 | 0.00 | 0.00 | 0.00 | 68 | 1002.0 |
| 20260509174220 | 16 | 117 | 4.8 | 11.3 | 0.00 | 0.00 | 0.00 | 65 | 1002.0 |
| 20260509173719 | 19 | 340 | 3.2 | 4.8 | 0.00 | 0.00 | 0.00 | 63 | 1002.0 |
| 20260509173219 | 18 | 48 | 0.0 | 8.0 | 0.00 | 0.00 | 0.00 | 62 | 1002.0 |
| 20260509172720 | 18 | 187 | 3.2 | 8.0 | 0.00 | 0.00 | 0.00 | 63 | 1002.0 |
| 20260509172220 | 17 | 117 | 0.0 | 9.7 | 0.00 | 0.00 | 0.00 | 68 | 1002.0 |
| 20260509171720 | 16 | 15 | 4.8 | 8.0 | 0.00 | 0.00 | 0.00 | 68 | 1002.0 |
| 20260509171219 | 16 | 47 | 6.4 | 11.3 | 0.00 | 0.00 | 0.00 | 67 | 1002.0 |
| 20260509170719 | 17 | 81 | 6.4 | 11.3 | 0.00 | 0.00 | 0.00 | 68 | 1002.0 |
| 20260509170219 | 18 | 10 | 0.0 | 3.2 | 0.00 | 0.00 | 0.00 | 64 | 1002.0 |
| 20260509165719 | 20 | 32 | 3.2 | 3.2 | 0.00 | 0.00 | 0.00 | 54 | 1002.0 |
| 20260509165219 | 19 | 305 | 4.8 | 0.0 | 0.00 | 0.00 | 0.00 | 63 | 1002.0 |
| 20260509164719 | 17 | 8 | 4.8 | 9.7 | 0.00 | 0.00 | 0.00 | 63 | 1002.0 |
| 20260509164219 | 17 | 310 | 6.4 | 11.3 | 0.00 | 0.00 | 0.00 | 64 | 1002.0 |
| 20260509163719 | 18 | 44 | 1.6 | 4.8 | 0.00 | 0.00 | 0.00 | 62 | 1002.0 |
| 20260509163219 | 17 | 350 | 0.0 | 6.4 | 0.00 | 0.00 | 0.00 | 70 | 1002.0 |
| 20260509162719 | 15 | 21 | 6.4 | 4.8 | 0.00 | 0.00 | 0.00 | 71 | 1002.0 |
| 20260509162219 | 17 | 34 | 1.6 | 4.8 | 0.00 | 0.00 | 0.00 | 67 | 1002.0 |
| 20260509161720 | 17 | 181 | 1.6 | 4.8 | 0.00 | 0.00 | 0.00 | 62 | 1002.0 |
| 20260509161220 | 17 | 58 | 0.0 | 0.0 | 0.00 | 0.00 | 0.00 | 65 | 1002.0 |
| 20260509160719 | 18 | 341 | 4.8 | 8.0 | 0.00 | 0.00 | 0.00 | 59 | 1002.0 |
| 20260509160220 | 17 | 25 | 1.6 | 3.2 | 0.00 | 0.00 | 0.00 | 63 | 1002.0 |
| 20260509155719 | 17 | 23 | 0.0 | 0.0 | 0.00 | 0.00 | 0.00 | 63 | 1002.0 |
| 20260509155219 | 17 | 27 | 0.0 | 3.2 | 0.00 | 0.00 | 0.00 | 63 | 1002.0 |
| 20260509154719 | 16 | 63 | 0.0 | 1.6 | 0.00 | 0.00 | 0.00 | 69 | 1002.0 |
| 20260509154220 | 15 | 59 | 0.0 | 4.8 | 0.00 | 0.00 | 0.00 | 71 | 1002.0 |
| 20260509153719 | 17 | 278 | 3.2 | 4.8 | 0.00 | 0.00 | 0.00 | 65 | 1002.0 |
| 20260509153219 | 17 | 50 | 0.0 | 0.0 | 0.00 | 0.00 | 0.00 | 65 | 1002.0 |
| 20260509152719 | 16 | 62 | 4.8 | 6.4 | 0.00 | 0.00 | 0.00 | 64 | 1002.0 |
| 20260509152219 | 16 | 197 | 3.2 | 4.8 | 0.00 | 0.00 | 0.00 | 66 | 1002.0 |
| 20260509151719 | 16 | 70 | 4.8 | 9.7 | 0.00 | 0.00 | 0.00 | 68 | 1002.0 |
| 20260509151219 | 15 | 68 | 11.3 | 6.4 | 0.00 | 0.00 | 0.00 | 68 | 1002.0 |
| 20260509150719 | 16 | 85 | 0.0 | 11.3 | 0.00 | 0.00 | 0.00 | 69 | 1002.0 |
| 20260509150219 | 15 | 83 | 4.8 | 12.9 | 0.00 | 0.00 | 0.00 | 69 | 1002.0 |
| 20260509145720 | 15 | 45 | 0.0 | 3.2 | 0.00 | 0.00 | 0.00 | 71 | 1003.0 |
| 20260509145219 | 15 | 297 | 4.8 | 4.8 | 0.00 | 0.00 | 0.00 | 68 | 1003.0 |
| 20260509144720 | 16 | 66 | 3.2 | 1.6 | 0.00 | 0.00 | 0.00 | 69 | 1003.0 |
| 20260509144219 | 15 | 201 | 6.4 | 11.3 | 0.00 | 0.00 | 0.00 | 70 | 1003.0 |
| 20260509143720 | 15 | 217 | 3.2 | 6.4 | 0.00 | 0.00 | 0.00 | 72 | 1003.0 |
| 20260509143219 | 15 | 63 | 0.0 | 3.2 | 0.00 | 0.00 | 0.00 | 71 | 1003.0 |
| 20260509142719 | 15 | 46 | 0.0 | 1.6 | 0.00 | 0.00 | 0.00 | 71 | 1003.0 |
| 20260509142219 | 14 | 69 | 0.0 | 6.4 | 0.00 | 0.00 | 0.00 | 71 | 1003.0 |
| 20260509141719 | 14 | 14 | 0.0 | 0.0 | 0.00 | 0.00 | 0.00 | 73 | 1003.0 |
| 20260509141219 | 14 | 90 | 1.6 | 3.2 | 0.00 | 0.00 | 0.00 | 73 | 1003.0 |
| 20260509140720 | 14 | 54 | 1.6 | 1.6 | 0.00 | 0.00 | 0.00 | 75 | 1003.0 |
| 20260509140222 | 14 | 61 | 0.0 | 3.2 | 0.00 | 0.00 | 0.00 | 75 | 1003.0 |
| 20260509135720 | 13 | 60 | 0.0 | 9.7 | 0.00 | 0.00 | 0.00 | 74 | 1003.0 |
| 20260509135219 | 14 | 93 | 4.8 | 6.4 | 0.00 | 0.00 | 0.00 | 73 | 1003.0 |
| 20260509134719 | 14 | 65 | 6.4 | 4.8 | 0.00 | 0.00 | 0.00 | 73 | 1003.0 |
| 20260509134219 | 13 | 98 | 4.8 | 6.4 | 0.00 | 0.00 | 0.00 | 76 | 1003.0 |
| 20260509133719 | 13 | 310 | 1.6 | 6.4 | 0.00 | 0.00 | 0.00 | 76 | 1003.0 |
| 20260509133219 | 13 | 107 | 8.0 | 8.0 | 0.00 | 0.00 | 0.00 | 76 | 1003.0 |
| 20260509132719 | 13 | 78 | 4.8 | 0.0 | 0.00 | 0.00 | 0.00 | 77 | 1003.0 |
| 20260509132219 | 13 | 49 | 1.6 | 1.6 | 0.00 | 0.00 | 0.00 | 79 | 1003.0 |
| 20260509131719 | 13 | 180 | 3.2 | 6.4 | 0.00 | 0.00 | 0.00 | 79 | 1003.0 |
| 20260509131219 | 13 | 63 | 0.0 | 3.2 | 0.00 | 0.00 | 0.00 | 80 | 1003.0 |
| 20260509130719 | 13 | 73 | 4.8 | 8.0 | 0.00 | 0.00 | 0.00 | 78 | 1003.0 |
| 20260509130219 | 13 | 164 | 4.8 | 4.8 | 0.00 | 0.00 | 0.00 | 80 | 1003.0 |
| 20260509125719 | 12 | 174 | 9.7 | 8.0 | 0.00 | 0.00 | 0.00 | 80 | 1003.0 |
| 20260509125219 | 12 | 86 | 6.4 | 8.0 | 0.00 | 0.00 | 0.00 | 80 | 1003.0 |
| 20260509124719 | 12 | 95 | 6.4 | 12.9 | 0.00 | 0.00 | 0.00 | 79 | 1003.0 |
| 20260509124220 | 13 | 171 | 0.0 | 6.4 | 0.00 | 0.00 | 0.00 | 79 | 1003.0 |
| 20260509123719 | 12 | 65 | 0.0 | 1.6 | 0.00 | 0.00 | 0.00 | 80 | 1003.0 |
| 20260509123219 | 12 | 50 | 1.6 | 9.7 | 0.00 | 0.00 | 0.00 | 80 | 1003.0 |
| 20260509122719 | 12 | 226 | 6.4 | 4.8 | 0.00 | 0.00 | 0.00 | 80 | 1003.0 |
| 20260509122219 | 12 | 66 | 0.0 | 1.6 | 0.00 | 0.00 | 0.00 | 82 | 1003.0 |
| 20260509121719 | 11 | 66 | 1.6 | 8.0 | 0.00 | 0.00 | 0.00 | 82 | 1003.0 |
| 20260509121220 | 11 | 101 | 0.0 | 1.6 | 0.00 | 0.00 | 0.00 | 83 | 1003.0 |
| 20260509120720 | 11 | 99 | 3.2 | 3.2 | 0.00 | 0.00 | 0.00 | 82 | 1003.0 |
| 20260509120219 | 11 | 74 | 4.8 | 4.8 | 0.00 | 0.00 | 0.00 | 83 | 1003.0 |
| 20260509115720 | 11 | 111 | 4.8 | 4.8 | 0.00 | 0.00 | 0.00 | 83 | 1003.0 |
| 20260509115219 | 11 | 90 | 3.2 | 1.6 | 0.00 | 0.00 | 0.00 | 83 | 1003.0 |
| 20260509114720 | 11 | 74 | 4.8 | 8.0 | 0.00 | 0.00 | 0.00 | 84 | 1003.0 |
| 20260509114220 | 11 | 65 | 3.2 | 8.0 | 0.00 | 0.00 | 0.00 | 84 | 1003.0 |
| 20260509113720 | 10 | 60 | 0.0 | 3.2 | 0.00 | 0.00 | 0.00 | 84 | 1003.0 |
| 20260509113219 | 10 | 73 | 3.2 | 1.6 | 0.00 | 0.00 | 0.00 | 85 | 1003.0 |
| 20260509112720 | 10 | 53 | 4.8 | 8.0 | 0.00 | 0.00 | 0.00 | 85 | 1003.0 |
| 20260509112219 | 10 | 126 | 4.8 | 3.2 | 0.00 | 0.00 | 0.00 | 85 | 1003.0 |
| 20260509111719 | 10 | 81 | 3.2 | 3.2 | 0.00 | 0.00 | 0.00 | 86 | 1003.0 |
| 20260509111219 | 10 | 235 | 0.0 | 3.2 | 0.00 | 0.00 | 0.00 | 86 | 1003.0 |
| 20260509110720 | 10 | 76 | 3.2 | 3.2 | 0.00 | 0.00 | 0.00 | 86 | 1003.0 |
| 20260509110219 | 10 | 67 | 0.0 | 3.2 | 0.00 | 0.00 | 0.00 | 86 | 1003.0 |
| 20260509105720 | 9 | 57 | 3.2 | 3.2 | 0.00 | 0.00 | 0.00 | 86 | 1003.0 |
| 20260509105220 | 9 | 68 | 1.6 | 4.8 | 0.00 | 0.00 | 0.00 | 86 | 1003.0 |
| 20260509104719 | 9 | 127 | 4.8 | 3.2 | 0.00 | 0.00 | 0.00 | 86 | 1003.0 |
| 20260509104219 | 9 | 90 | 1.6 | 6.4 | 0.00 | 0.00 | 0.00 | 86 | 1003.0 |
| 20260509103719 | 9 | 55 | 4.8 | 6.4 | 0.00 | 0.00 | 0.00 | 86 | 1003.0 |
| 20260509103219 | 8 | 60 | 1.6 | 3.2 | 0.00 | 0.00 | 0.00 | 87 | 1003.0 |
| 20260509102719 | 8 | 60 | 3.2 | 1.6 | 0.00 | 0.00 | 0.00 | 87 | 1003.0 |
| 20260509102219 | 8 | 59 | 1.6 | 3.2 | 0.00 | 0.00 | 0.00 | 87 | 1003.0 |
| 20260509101720 | 8 | 66 | 0.0 | 4.8 | 0.00 | 0.00 | 0.00 | 88 | 1003.0 |
| 20260509101219 | 8 | 56 | 3.2 | 3.2 | 0.00 | 0.00 | 0.00 | 89 | 1003.0 |
| 20260509100720 | 8 | 85 | 1.6 | 1.6 | 0.00 | 0.00 | 0.00 | 89 | 1003.0 |
| 20260509100220 | 7 | 59 | 0.0 | 0.0 | 0.00 | 0.00 | 0.00 | 88 | 1003.0 |
| 20260509095720 | 8 | 60 | 0.0 | 1.6 | 0.00 | 0.00 | 0.00 | 88 | 1003.0 |
| 20260509095219 | 8 | 75 | 1.6 | 3.2 | 0.00 | 0.00 | 0.00 | 87 | 1003.0 |
| 20260509094719 | 8 | 57 | 1.6 | 3.2 | 0.00 | 0.00 | 0.00 | 87 | 1003.0 |
| 20260509094219 | 8 | 84 | 1.6 | 1.6 | 0.00 | 0.00 | 0.00 | 87 | 1003.0 |
| 20260509093720 | 8 | 57 | 0.0 | 0.0 | 0.00 | 0.00 | 0.00 | 87 | 1003.0 |
| 20260509093219 | 8 | 69 | 1.6 | 1.6 | 0.00 | 0.00 | 0.00 | 86 | 1003.0 |
| 20260509092719 | 8 | 70 | 0.0 | 3.2 | 0.00 | 0.00 | 0.00 | 86 | 1003.0 |
| 20260509092219 | 8 | 53 | 0.0 | 1.6 | 0.00 | 0.00 | 0.00 | 86 | 1003.0 |
| 20260509091719 | 8 | 63 | 0.0 | 0.0 | 0.00 | 0.00 | 0.00 | 85 | 1003.0 |
| 20260509091219 | 8 | 150 | 0.0 | 3.2 | 0.00 | 0.00 | 0.00 | 85 | 1003.0 |
| 20260509090720 | 8 | 55 | 1.6 | 3.2 | 0.00 | 0.00 | 0.00 | 84 | 1003.0 |
| 20260509090219 | 8 | 91 | 0.0 | 1.6 | 0.00 | 0.00 | 0.00 | 85 | 1003.0 |
| 20260509085719 | 8 | 56 | 0.0 | 3.2 | 0.00 | 0.00 | 0.00 | 84 | 1004.0 |
| 20260509085219 | 8 | 58 | 1.6 | 0.0 | 0.00 | 0.00 | 0.00 | 84 | 1004.0 |
| 20260509084720 | 8 | 65 | 1.6 | 3.2 | 0.00 | 0.00 | 0.00 | 83 | 1004.0 |
| 20260509084220 | 8 | 83 | 3.2 | 0.0 | 0.00 | 0.00 | 0.00 | 83 | 1004.0 |
| 20260509083719 | 8 | 101 | 3.2 | 3.2 | 0.00 | 0.00 | 0.00 | 82 | 1004.0 |
| 20260509083219 | 8 | 52 | 0.0 | 3.2 | 0.00 | 0.00 | 0.00 | 82 | 1004.0 |
| 20260509082719 | 8 | 84 | 1.6 | 3.2 | 0.00 | 0.00 | 0.00 | 82 | 1004.0 |
| 20260509082219 | 8 | 87 | 0.0 | 0.0 | 0.00 | 0.00 | 0.00 | 82 | 1004.0 |
| 20260509081719 | 8 | 70 | 4.8 | 4.8 | 0.00 | 0.00 | 0.00 | 81 | 1004.0 |
| 20260509081219 | 8 | 63 | 4.8 | 4.8 | 0.00 | 0.00 | 0.00 | 81 | 1004.0 |
| 20260509080719 | 8 | 68 | 1.6 | 4.8 | 0.00 | 0.00 | 0.00 | 80 | 1004.0 |
| 20260509080219 | 8 | 67 | 0.0 | 4.8 | 0.00 | 0.00 | 0.00 | 80 | 1004.0 |
| 20260509075719 | 8 | 86 | 0.0 | 4.8 | 0.00 | 0.00 | 0.00 | 79 | 1004.0 |
| 20260509075219 | 8 | 74 | 1.6 | 3.2 | 0.00 | 0.00 | 0.00 | 80 | 1004.0 |
| 20260509074719 | 8 | 70 | 1.6 | 6.4 | 0.00 | 0.00 | 0.00 | 79 | 1004.0 |
| 20260509074219 | 7 | 54 | 0.0 | 0.0 | 0.00 | 0.00 | 0.00 | 79 | 1004.0 |
| 20260509073719 | 7 | 57 | 3.2 | 3.2 | 0.00 | 0.00 | 0.00 | 79 | 1004.0 |
| 20260509073219 | 7 | 62 | 0.0 | 3.2 | 0.00 | 0.00 | 0.00 | 78 | 1004.0 |
| 20260509072719 | 7 | 60 | 1.6 | 1.6 | 0.00 | 0.00 | 0.00 | 77 | 1004.0 |
| 20260509072219 | 7 | 48 | 0.0 | 1.6 | 0.00 | 0.00 | 0.00 | 76 | 1004.0 |
| 20260509071720 | 7 | 115 | 3.2 | 1.6 | 0.00 | 0.00 | 0.00 | 75 | 1004.0 |
| 20260509071219 | 7 | 65 | 1.6 | 1.6 | 0.00 | 0.00 | 0.00 | 75 | 1004.0 |
| 20260509070719 | 7 | 66 | 1.6 | 3.2 | 0.00 | 0.00 | 0.00 | 75 | 1004.0 |
| 20260509070219 | 7 | 70 | 0.0 | 0.0 | 0.00 | 0.00 | 0.00 | 75 | 1004.0 |
| 20260509065720 | 7 | 77 | 1.6 | 3.2 | 0.00 | 0.00 | 0.00 | 74 | 1005.0 |
| 20260509065220 | 7 | 67 | 0.0 | 0.0 | 0.00 | 0.00 | 0.00 | 74 | 1005.0 |
| 20260509064719 | 7 | 71 | 0.0 | 0.0 | 0.00 | 0.00 | 0.00 | 74 | 1005.0 |
| 20260509064219 | 7 | 75 | 0.0 | 0.0 | 0.00 | 0.00 | 0.00 | 74 | 1005.0 |
| 20260509063720 | 7 | 53 | 0.0 | 0.0 | 0.00 | 0.00 | 0.00 | 73 | 1005.0 |
| 20260509063219 | 7 | 64 | 0.0 | 1.6 | 0.00 | 0.00 | 0.00 | 72 | 1005.0 |
| 20260509062720 | 7 | 69 | 0.0 | 0.0 | 0.00 | 0.00 | 0.00 | 71 | 1005.0 |
| 20260509062219 | 7 | 27 | 1.6 | 3.2 | 0.00 | 0.00 | 0.00 | 71 | 1005.0 |
| 20260509061719 | 7 | 81 | 3.2 | 8.0 | 0.00 | 0.00 | 0.00 | 71 | 1005.0 |
| 20260509061219 | 6 | 64 | 1.6 | 3.2 | 0.00 | 0.00 | 0.00 | 73 | 1005.0 |
| 20260509060719 | 6 | 62 | 0.0 | 0.0 | 0.00 | 0.00 | 0.00 | 74 | 1005.0 |
| 20260509060219 | 6 | 58 | 0.0 | 1.6 | 0.00 | 0.00 | 0.00 | 72 | 1005.0 |
| 20260509055720 | 6 | 82 | 3.2 | 3.2 | 0.00 | 0.00 | 0.00 | 72 | 1005.0 |
| 20260509055219 | 6 | 126 | 1.6 | 3.2 | 0.00 | 0.00 | 0.00 | 72 | 1005.0 |
| 20260509054720 | 5 | 57 | 0.0 | 0.0 | 0.00 | 0.00 | 0.00 | 75 | 1005.0 |
| 20260509054221 | 5 | 71 | 0.0 | 0.0 | 0.00 | 0.00 | 0.00 | 75 | 1005.0 |
| 20260509053719 | 5 | 72 | 0.0 | 0.0 | 0.00 | 0.00 | 0.00 | 75 | 1005.0 |
| 20260509053219 | 5 | 52 | 0.0 | 0.0 | 0.00 | 0.00 | 0.00 | 74 | 1005.0 |
| 20260509052719 | 5 | 68 | 0.0 | 3.2 | 0.00 | 0.00 | 0.00 | 75 | 1005.0 |
| 20260509052219 | 5 | 51 | 0.0 | 0.0 | 0.00 | 0.00 | 0.00 | 74 | 1005.0 |
| 20260509051719 | 6 | 62 | 1.6 | 1.6 | 0.00 | 0.00 | 0.00 | 73 | 1005.0 |
| 20260509051219 | 5 | 58 | 1.6 | 1.6 | 0.00 | 0.00 | 0.00 | 73 | 1005.0 |
| 20260509050719 | 6 | 63 | 0.0 | 1.6 | 0.00 | 0.00 | 0.00 | 73 | 1005.0 |
| 20260509050219 | 6 | 67 | 0.0 | 3.2 | 0.00 | 0.00 | 0.00 | 72 | 1005.0 |
| 20260509045719 | 6 | 61 | 0.0 | 0.0 | 0.00 | 0.00 | 0.00 | 72 | 1006.0 |
| 20260509045220 | 6 | 64 | 0.0 | 0.0 | 0.00 | 0.00 | 0.00 | 72 | 1006.0 |
| 20260509044719 | 6 | 54 | 0.0 | 0.0 | 0.00 | 0.00 | 0.00 | 72 | 1006.0 |
| 20260509044219 | 6 | 60 | 0.0 | 1.6 | 0.00 | 0.00 | 0.00 | 72 | 1006.0 |
| 20260509043719 | 5 | 63 | 3.2 | 6.4 | 0.00 | 0.00 | 0.00 | 73 | 1006.0 |
| 20260509043219 | 6 | 71 | 3.2 | 4.8 | 0.00 | 0.00 | 0.00 | 73 | 1006.0 |
| 20260509042719 | 6 | 86 | 4.8 | 8.0 | 0.00 | 0.00 | 0.00 | 73 | 1006.0 |
| 20260509042219 | 5 | 83 | 3.2 | 4.8 | 0.00 | 0.00 | 0.00 | 75 | 1006.0 |
| 20260509041719 | 5 | 77 | 3.2 | 3.2 | 0.00 | 0.00 | 0.00 | 75 | 1006.0 |
| 20260509041219 | 5 | 80 | 0.0 | 0.0 | 0.00 | 0.00 | 0.00 | 76 | 1006.0 |
| 20260509040719 | 5 | 61 | 0.0 | 0.0 | 0.00 | 0.00 | 0.00 | 76 | 1006.0 |
| 20260509040219 | 5 | 68 | 0.0 | 0.0 | 0.00 | 0.00 | 0.33 | 76 | 1006.0 |
| 20260509035720 | 5 | 64 | 0.0 | 0.0 | 0.00 | 0.00 | 0.33 | 76 | 1006.0 |
| 20260509035219 | 5 | 56 | 0.0 | 0.0 | 0.00 | 0.00 | 0.33 | 75 | 1006.0 |
| 20260509034719 | 5 | 70 | 0.0 | 1.6 | 0.00 | 0.00 | 0.33 | 75 | 1006.0 |
| 20260509034219 | 5 | 60 | 0.0 | 0.0 | 0.00 | 0.00 | 0.33 | 75 | 1006.0 |
| 20260509033720 | 6 | 62 | 0.0 | 1.6 | 0.00 | 0.00 | 0.33 | 73 | 1006.0 |
| 20260509033219 | 6 | 75 | 0.0 | 3.2 | 0.00 | 0.00 | 0.33 | 73 | 1006.0 |
| 20260509032719 | 6 | 51 | 3.2 | 3.2 | 0.00 | 0.00 | 0.33 | 74 | 1006.0 |
| 20260509032219 | 6 | 67 | 1.6 | 1.6 | 0.00 | 0.00 | 0.33 | 73 | 1006.0 |
| 20260509031719 | 6 | 56 | 0.0 | 0.0 | 0.00 | 0.00 | 0.33 | 72 | 1006.0 |
| 20260509031219 | 6 | 72 | 0.0 | 0.0 | 0.00 | 0.00 | 0.33 | 72 | 1006.0 |
| 20260509030720 | 6 | 69 | 0.0 | 0.0 | 0.00 | 0.00 | 0.33 | 72 | 1006.0 |
| 20260509030220 | 6 | 53 | 0.0 | 3.2 | 0.00 | 0.00 | 0.33 | 72 | 1006.0 |
| 20260509025719 | 6 | 71 | 0.0 | 0.0 | 0.00 | 0.00 | 0.33 | 73 | 1006.0 |
| 20260509025219 | 6 | 56 | 0.0 | 3.2 | 0.00 | 0.00 | 0.33 | 72 | 1006.0 |
| 20260509024719 | 6 | 70 | 0.0 | 0.0 | 0.00 | 0.00 | 0.33 | 72 | 1006.0 |
| 20260509024220 | 6 | 71 | 0.0 | 0.0 | 0.00 | 0.00 | 0.33 | 71 | 1006.0 |
| 20260509023719 | 6 | 65 | 0.0 | 0.0 | 0.00 | 0.00 | 0.33 | 70 | 1006.0 |
| 20260509023219 | 6 | 67 | 0.0 | 0.0 | 0.00 | 0.00 | 0.33 | 69 | 1006.0 |
| 20260509022719 | 7 | 72 | 0.0 | 0.0 | 0.00 | 0.00 | 0.33 | 69 | 1006.0 |
| 20260509022219 | 7 | 66 | 0.0 | 0.0 | 0.00 | 0.00 | 0.33 | 68 | 1006.0 |
| 20260509021720 | 7 | 66 | 0.0 | 0.0 | 0.00 | 0.00 | 0.33 | 69 | 1006.0 |
| 20260509021219 | 7 | 65 | 0.0 | 0.0 | 0.00 | 0.00 | 0.33 | 67 | 1006.0 |
| 20260509020719 | 7 | 83 | 0.0 | 0.0 | 0.00 | 0.00 | 0.33 | 66 | 1006.0 |
| 20260509020219 | 7 | 74 | 0.0 | 0.0 | 0.00 | 0.00 | 0.33 | 65 | 1006.0 |
| 20260509015720 | 7 | 67 | 0.0 | 0.0 | 0.00 | 0.00 | 0.33 | 69 | 1006.0 |
| 20260509015219 | 7 | 67 | 0.0 | 0.0 | 0.00 | 0.00 | 0.33 | 65 | 1006.0 |
| 20260509014719 | 7 | 63 | 0.0 | 0.0 | 0.00 | 0.00 | 0.33 | 66 | 1006.0 |
| 20260509014219 | 7 | 72 | 0.0 | 0.0 | 0.00 | 0.00 | 0.33 | 65 | 1006.0 |
| 20260509013719 | 7 | 61 | 0.0 | 0.0 | 0.00 | 0.00 | 0.33 | 64 | 1006.0 |
| 20260509013219 | 7 | 61 | 0.0 | 0.0 | 0.00 | 0.00 | 0.33 | 61 | 1006.0 |
| 20260509012719 | 8 | 61 | 0.0 | 0.0 | 0.00 | 0.00 | 0.33 | 60 | 1006.0 |
| 20260509012219 | 8 | 61 | 0.0 | 0.0 | 0.00 | 0.00 | 0.33 | 59 | 1006.0 |
| 20260509011720 | 8 | 61 | 0.0 | 0.0 | 0.00 | 0.00 | 0.33 | 59 | 1006.0 |
| 20260509011219 | 8 | 60 | 0.0 | 0.0 | 0.00 | 0.00 | 0.33 | 57 | 1006.0 |
| 20260509010719 | 8 | 60 | 0.0 | 0.0 | 0.00 | 0.00 | 0.33 | 54 | 1006.0 |
| 20260509010219 | 8 | 60 | 0.0 | 0.0 | 0.00 | 0.00 | 0.33 | 54 | 1006.0 |
| 20260509005720 | 8 | 60 | 0.0 | 0.0 | 0.00 | 0.00 | 0.33 | 58 | 1006.0 |
| 20260509005219 | 8 | 60 | 0.0 | 0.0 | 0.00 | 0.00 | 0.33 | 57 | 1006.0 |
| 20260509004719 | 8 | 47 | 0.0 | 0.0 | 0.00 | 0.00 | 0.33 | 55 | 1006.0 |
| 20260509004219 | 9 | 47 | 0.0 | 0.0 | 0.00 | 0.00 | 0.33 | 55 | 1006.0 |
| 20260509003719 | 9 | 49 | 0.0 | 0.0 | 0.00 | 0.00 | 0.33 | 57 | 1006.0 |
| 20260509003219 | 10 | 49 | 0.0 | 0.0 | 0.00 | 0.00 | 0.33 | 54 | 1006.0 |
| 20260509002719 | 10 | 48 | 0.0 | 0.0 | 0.00 | 0.00 | 0.33 | 54 | 1006.0 |
| 20260509002219 | 10 | 47 | 0.0 | 0.0 | 0.00 | 0.00 | 0.33 | 54 | 1006.0 |
| 20260509001719 | 10 | 54 | 0.0 | 0.0 | 0.00 | 0.00 | 0.33 | 53 | 1006.0 |
| 20260509001220 | 10 | 55 | 0.0 | 0.0 | 0.00 | 0.00 | 0.33 | 50 | 1006.0 |
| 20260509000719 | 10 | 55 | 0.0 | 0.0 | 0.00 | 0.00 | 0.33 | 50 | 1006.0 |
| 20260509000220 | 10 | 55 | 0.0 | 0.0 | 0.00 | 0.00 | 0.33 | 49 | 1006.0 |
| 20260508235719 | 11 | 56 | 0.0 | 0.0 | 0.00 | 0.00 | 0.33 | 46 | 1006.0 |
| 20260508235219 | 11 | 49 | 0.0 | 0.0 | 0.00 | 0.00 | 0.33 | 44 | 1006.0 |
| 20260508234719 | 11 | 39 | 0.0 | 0.0 | 0.00 | 0.00 | 0.33 | 45 | 1006.0 |
| 20260508234219 | 11 | 48 | 0.0 | 0.0 | 0.00 | 0.00 | 0.33 | 43 | 1006.0 |
| 20260508233719 | 11 | 47 | 0.0 | 0.0 | 0.00 | 0.00 | 0.33 | 45 | 1006.0 |
| 20260508233219 | 11 | 51 | 0.0 | 0.0 | 0.00 | 0.00 | 0.33 | 39 | 1006.0 |
| 20260508232720 | 12 | 45 | 0.0 | 3.2 | 0.00 | 0.00 | 0.33 | 40 | 1006.0 |
| 20260508232220 | 12 | 354 | 3.2 | 0.0 | 0.00 | 0.00 | 0.33 | 38 | 1006.0 |
| 20260508231719 | 13 | 317 | 0.0 | 1.6 | 0.00 | 0.00 | 0.33 | 35 | 1006.0 |
| 20260508231219 | 13 | 303 | 0.0 | 3.2 | 0.00 | 0.00 | 0.33 | 37 | 1006.0 |
| 20260508230719 | 12 | 315 | 1.6 | 8.0 | 0.00 | 0.00 | 0.33 | 37 | 1006.0 |
| 20260508230219 | 12 | 323 | 1.6 | 3.2 | 0.00 | 0.00 | 0.33 | 35 | 1006.0 |
| 20260508225719 | 12 | 351 | 4.8 | 3.2 | 0.00 | 0.00 | 0.33 | 38 | 1006.0 |
| 20260508225219 | 13 | 302 | 0.0 | 3.2 | 0.00 | 0.00 | 0.33 | 41 | 1006.0 |
| 20260508224721 | 12 | 328 | 0.0 | 0.0 | 0.00 | 0.00 | 0.33 | 44 | 1006.0 |
| 20260508224220 | 13 | 33 | 0.0 | 0.0 | 0.00 | 0.00 | 0.33 | 47 | 1006.0 |
| 20260508223719 | 12 | 47 | 0.0 | 4.8 | 0.00 | 0.00 | 0.33 | 43 | 1006.0 |
| 20260508223220 | 12 | 334 | 0.0 | 3.2 | 0.00 | 0.00 | 0.33 | 42 | 1006.0 |